EW9606 Weather Reports


time (UTC)temp
C
wind
direction
speed
KPH
gust
KPH
rain 1hr
cm
rain 24hr
cm
rain mn
cm
humidity
%
barometer
mb
20260507160106 21 248 8.0 19.3 0.00 0.00 0.00 64 1014.9
20260507155607 21 282 8.0 14.5 0.00 0.00 0.00 64 1014.8
20260507155106 21 270 9.7 16.1 0.00 0.00 0.00 64 1014.9
20260507154606 21 220 8.0 19.3 0.00 0.00 0.00 64 1015.0
20260507154106 21 331 9.7 14.5 0.00 0.00 0.00 64 1015.0
20260507153606 21 243 8.0 14.5 0.00 0.00 0.00 64 1015.0
20260507153106 21 253 9.7 16.1 0.00 0.00 0.00 64 1014.9
20260507152607 21 271 9.7 16.1 0.00 0.00 0.00 64 1014.8
20260507152107 21 225 8.0 19.3 0.00 0.00 0.00 64 1014.9
20260507150606 22 225 6.4 16.1 0.00 0.00 0.00 63 1014.9
20260507145107 21 300 9.7 16.1 0.00 0.00 0.00 64 1014.9
20260507144606 22 315 8.0 19.3 0.00 0.00 0.00 64 1014.9
20260507144106 22 239 9.7 16.1 0.00 0.00 0.00 64 1014.7
20260507143606 22 276 6.4 19.3 0.00 0.00 0.00 64 1014.9
20260507143107 22 315 11.3 16.1 0.00 0.00 0.00 63 1014.9
20260507142607 22 248 8.0 16.1 0.00 0.00 0.00 64 1015.0
20260507142106 22 217 8.0 20.9 0.00 0.00 0.00 64 1014.8
20260507141606 22 284 9.7 20.9 0.00 0.00 0.00 63 1015.0
20260507141106 22 270 4.8 20.9 0.00 0.00 0.00 63 1015.1
20260507140606 21 248 9.7 22.5 0.00 0.00 0.00 63 1015.0
20260507140106 21 265 12.9 22.5 0.00 0.00 0.00 63 1015.0
20260507135106 22 258 8.0 20.9 0.00 0.00 0.00 63 1015.2
20260507134606 21 270 11.3 19.3 0.00 0.00 0.00 63 1015.1
20260507133607 22 248 9.7 20.9 0.00 0.00 0.00 64 1015.3
20260507133106 22 233 9.7 22.5 0.00 0.00 0.00 64 1015.3
20260507132606 22 281 12.9 22.5 0.00 0.00 0.00 64 1015.1
20260507132106 22 262 9.7 20.9 0.00 0.00 0.00 64 1015.2
20260507131606 22 270 8.0 20.9 0.00 0.00 0.00 64 1015.4
20260507131106 22 286 8.0 20.9 0.00 0.00 0.00 63 1015.2
20260507130606 22 278 9.7 16.1 0.00 0.00 0.00 64 1015.2
20260507130106 22 292 11.3 20.9 0.00 0.00 0.00 64 1015.2
20260507125107 23 280 8.0 16.1 0.00 0.00 0.00 63 1015.2
20260507124607 22 261 11.3 16.1 0.00 0.00 0.00 63 1015.2
20260507124106 24 255 3.2 9.7 0.00 0.00 0.00 62 1015.2
20260507123606 23 112 1.6 8.0 0.00 0.00 0.00 63 1015.1
20260507123106 23 61 3.2 9.7 0.00 0.00 0.00 63 1015.1
20260507122607 23 68 3.2 9.7 0.00 0.00 0.00 63 1015.4
20260507122107 23 15 4.8 9.7 0.00 0.00 0.00 63 1015.2
20260507121606 23 13 3.2 8.0 0.00 0.00 0.00 63 1015.3
20260507121106 23 346 3.2 4.8 0.00 0.00 0.00 63 1015.2
20260507120606 24 19 3.2 8.0 0.00 0.00 0.00 63 1015.3
20260507120106 23 36 1.6 11.3 0.00 0.00 0.00 63 1015.2
20260507115606 23 90 3.2 11.3 0.00 0.00 0.00 63 1015.3
20260507114607 22 135 8.0 12.9 0.00 0.00 0.00 63 1015.2
20260507114106 23 88 4.8 14.5 0.00 0.00 0.00 62 1015.2
20260507113606 22 112 8.0 14.5 0.00 0.00 0.00 62 1015.2
20260507112607 22 158 8.0 14.5 0.00 0.00 0.00 62 1015.3
20260507112106 22 112 4.8 11.3 0.00 0.00 0.00 62 1015.3
20260507111606 23 112 3.2 8.0 0.00 0.00 0.00 62 1015.2
20260507111106 22 128 4.8 11.3 0.00 0.00 0.00 61 1015.3
20260507110606 22 135 4.8 12.9 0.00 0.00 0.00 60 1015.4
20260507110106 22 128 4.8 12.9 0.00 0.00 0.00 61 1015.4
20260507105106 21 97 9.7 14.5 0.00 0.00 0.00 61 1015.3
20260507104106 21 141 8.0 16.1 0.00 0.00 0.00 61 1015.6
20260507103606 21 119 8.0 14.5 0.00 0.00 0.00 61 1015.5
20260507103106 21 112 9.7 14.5 0.00 0.00 0.00 61 1015.5
20260507102606 21 172 4.8 16.1 0.00 0.00 0.00 61 1015.5
20260507102107 21 112 8.0 14.5 0.00 0.00 0.00 61 1015.5
20260507101606 22 90 4.8 12.9 0.00 0.00 0.00 61 1015.6
20260507101106 21 112 8.0 12.9 0.00 0.00 0.00 60 1015.4
20260507100606 22 106 4.8 12.9 0.00 0.00 0.00 60 1015.5
20260507100106 22 135 8.0 12.9 0.00 0.00 0.00 60 1015.5
20260507095607 23 112 3.2 8.0 0.00 0.00 0.00 61 1015.3
20260507095106 23 248 3.2 8.0 0.00 0.00 0.00 59 1015.6
20260507094106 23 280 3.2 8.0 0.00 0.00 0.00 60 1015.5
20260507093606 22 263 3.2 8.0 0.00 0.00 0.00 61 1015.7
20260507093107 23 237 4.8 9.7 0.00 0.00 0.00 61 1015.8
20260507092106 23 272 3.2 11.3 0.00 0.00 0.00 61 1016.0
20260507091106 22 267 6.4 11.3 0.00 0.00 0.00 61 1016.2
20260507090607 22 276 4.8 9.7 0.00 0.00 0.00 61 1016.2
20260507090106 22 225 8.0 12.9 0.00 0.00 0.00 61 1016.1
20260507085606 22 225 3.2 9.7 0.00 0.00 0.00 61 1016.3
20260507085106 22 236 4.8 11.3 0.00 0.00 0.00 61 1016.2
20260507084107 22 240 4.8 9.7 0.00 0.00 0.00 61 1016.2
20260507083606 22 253 4.8 9.7 0.00 0.00 0.00 61 1016.3
20260507083106 23 267 3.2 11.3 0.00 0.00 0.00 61 1016.3
20260507082606 22 292 8.0 11.3 0.00 0.00 0.00 61 1016.3
20260507082106 22 275 4.8 9.7 0.00 0.00 0.00 61 1016.1
20260507081606 22 259 4.8 9.7 0.00 0.00 0.00 61 1016.2
20260507081106 22 270 3.2 9.7 0.00 0.00 0.00 61 1016.3
20260507080606 21 270 4.8 9.7 0.00 0.00 0.00 61 1016.2
20260507080106 21 239 4.8 9.7 0.00 0.00 0.00 61 1016.2
20260507075606 21 274 4.8 11.3 0.00 0.00 0.00 61 1016.2
20260507075106 21 275 8.0 11.3 0.00 0.00 0.00 61 1016.3
20260507074106 21 262 4.8 9.7 0.00 0.00 0.00 60 1016.4
20260507073607 21 270 3.2 4.8 0.00 0.00 0.00 60 1016.3
20260507073106 21 242 3.2 8.0 0.00 0.00 0.00 60 1016.2
20260507072606 21 258 3.2 9.7 0.00 0.00 0.00 60 1016.3
20260507072107 21 274 4.8 11.3 0.00 0.00 0.00 60 1016.2
20260507071606 21 262 3.2 8.0 0.00 0.00 0.00 60 1016.2
20260507070607 20 270 9.7 11.3 0.00 0.00 0.00 60 1016.2
20260507070106 21 280 4.8 9.7 0.00 0.00 0.00 60 1016.3
20260507065606 20 262 3.2 9.7 0.00 0.00 0.00 60 1016.4
20260507065106 20 234 4.8 9.7 0.00 0.00 0.00 59 1016.2
20260507064606 20 275 4.8 9.7 0.00 0.00 0.00 58 1016.3
20260507064106 19 286 3.2 8.0 0.00 0.00 0.00 57 1016.2
20260507063609 20 284 3.2 8.0 0.00 0.00 0.00 56 1016.1
20260507063106 20 22 1.6 8.0 0.00 0.00 0.00 55 1016.2
20260507062606 19 37 4.8 9.7 0.00 0.00 0.00 55 1016.2
20260507062106 19 29 4.8 9.7 0.00 0.00 0.00 55 1016.1
20260507061607 20 22 0.0 4.8 0.00 0.00 0.00 55 1016.1
20260507061107 19 45 3.2 8.0 0.00 0.00 0.00 55 1016.3
20260507060606 19 0 4.8 9.7 0.00 0.00 0.00 56 1016.2
20260507060106 19 355 1.6 4.8 0.00 0.00 0.00 55 1016.1
20260507055606 19 321 3.2 4.8 0.00 0.00 0.00 56 1016.0
20260507055106 20 346 1.6 4.8 0.00 0.00 0.00 55 1016.0
20260507053606 20 22 1.6 3.2 0.00 0.00 0.00 55 1015.8
20260507053106 19 14 1.6 3.2 0.00 0.00 0.00 55 1015.8
20260507052606 19 0 1.6 3.2 0.00 0.00 0.00 56 1015.9
20260507052107 19 0 1.6 3.2 0.00 0.00 0.00 56 1015.8
20260507051607 19 0 1.6 3.2 0.00 0.00 0.00 56 1015.6
20260507050606 20 338 1.6 3.2 0.00 0.00 0.00 55 1015.5
20260507050106 20 270 1.6 1.6 0.00 0.00 0.00 55 1015.6
20260507045106 19 270 1.6 3.2 0.00 0.00 0.00 56 1015.3
20260507044606 20 270 0.0 1.6 0.00 0.00 0.00 55 1015.2
20260507044106 20 270 0.0 1.6 0.00 0.00 0.00 55 1015.3
20260507043607 19 270 0.0 1.6 0.00 0.00 0.00 55 1015.1
20260507043106 19 270 0.0 0.0 0.00 0.00 0.00 55 1015.0
20260507042606 18 270 0.0 0.0 0.00 0.00 0.00 56 1014.9
20260507041607 17 270 0.0 1.6 0.00 0.00 0.00 56 1015.0
20260507041106 17 270 0.0 1.6 0.00 0.00 0.00 56 1014.9
20260507040606 17 270 0.0 1.6 0.00 0.00 0.00 56 1014.9
20260507040106 16 270 1.6 1.6 0.00 0.00 0.00 57 1014.7
20260507035607 16 270 0.0 1.6 0.00 0.00 0.00 57 1014.5
20260507035106 16 270 0.0 1.6 0.00 0.00 0.00 57 1014.5
20260507034606 16 248 0.0 0.0 0.00 0.00 0.00 57 1014.6
20260507034107 15 248 0.0 1.6 0.00 0.00 0.00 57 1014.5
20260507033607 15 270 1.6 3.2 0.00 0.00 0.00 57 1014.4
20260507033106 15 257 1.6 1.6 0.00 0.00 0.00 57 1014.5
20260507032606 15 270 0.0 1.6 0.00 0.00 0.00 57 1014.4
20260507032106 15 248 1.6 3.2 0.00 0.00 0.00 57 1014.4
20260507031606 15 270 1.6 3.2 0.00 0.00 0.00 58 1014.4
20260507030607 15 270 0.0 0.0 0.00 0.00 0.00 58 1014.2
20260507030107 15 270 0.0 1.6 0.00 0.00 0.00 58 1014.2
20260507025606 15 248 1.6 1.6 0.00 0.00 0.00 58 1014.3
20260507025106 15 270 1.6 1.6 0.00 0.00 0.00 58 1014.3
20260507024607 15 270 1.6 1.6 0.00 0.00 0.00 58 1014.5
20260507024106 15 270 1.6 1.6 0.00 0.00 0.00 58 1014.4
20260507023606 15 270 1.6 3.2 0.00 0.00 0.00 58 1014.3
20260507023106 15 262 1.6 1.6 0.00 0.00 0.00 59 1014.0
20260507022606 15 248 0.0 1.6 0.00 0.00 0.00 59 1014.0
20260507022106 15 248 0.0 1.6 0.00 0.00 0.00 59 1014.1
20260507021607 15 248 1.6 1.6 0.00 0.00 0.00 59 1014.1
20260507021106 15 248 1.6 1.6 0.00 0.00 0.00 59 1014.0
20260507020606 15 248 0.0 1.6 0.00 0.00 0.00 59 1014.1
20260507020106 15 248 0.0 3.2 0.00 0.00 0.00 59 1014.0
20260507015607 15 248 1.6 3.2 0.00 0.00 0.00 60 1014.4
20260507015106 15 270 0.0 1.6 0.00 0.00 0.00 61 1014.1
20260507014606 15 270 1.6 1.6 0.00 0.00 0.00 61 1014.2
20260507014106 15 270 1.6 1.6 0.00 0.00 0.00 61 1014.2
20260507013607 15 270 0.0 1.6 0.00 0.00 0.00 61 1014.2
20260507012107 15 270 1.6 1.6 0.00 0.00 0.00 61 1014.4
20260507011606 15 270 0.0 1.6 0.00 0.00 0.00 61 1014.2
20260507010607 15 270 1.6 1.6 0.00 0.00 0.00 61 1014.2
20260507010106 15 270 0.0 1.6 0.00 0.00 0.00 62 1014.3
20260507005606 15 270 0.0 1.6 0.00 0.00 0.00 62 1014.3
20260507004606 15 270 0.0 1.6 0.00 0.00 0.00 62 1014.2
20260507004106 16 270 0.0 1.6 0.00 0.00 0.00 62 1014.3
20260507003606 16 270 0.0 1.6 0.00 0.00 0.00 63 1014.2
20260507003107 16 270 1.6 1.6 0.00 0.00 0.00 63 1014.3
20260507002606 16 270 0.0 0.0 0.00 0.00 0.00 64 1014.3
20260507002106 16 270 0.0 0.0 0.00 0.00 0.00 64 1014.4
20260507001606 16 270 0.0 0.0 0.00 0.00 0.00 64 1014.4
20260507001107 16 270 0.0 0.0 0.00 0.00 0.00 64 1014.4
20260507000106 16 270 1.6 1.6 0.00 0.00 0.00 64 1014.4
20260506235606 16 248 1.6 3.2 0.00 0.00 0.00 64 1014.2
20260506235106 16 240 1.6 3.2 0.00 0.00 0.00 65 1014.4
20260506234607 16 248 1.6 3.2 0.00 0.00 0.00 65 1014.3
20260506234107 16 270 0.0 3.2 0.00 0.00 0.00 65 1014.2
20260506233606 16 262 1.6 3.2 0.00 0.00 0.00 65 1014.5
20260506233106 16 225 1.6 3.2 0.00 0.00 0.00 65 1014.3
20260506232606 16 225 1.6 4.8 0.00 0.00 0.00 65 1014.3
20260506232107 16 248 1.6 3.2 0.00 0.00 0.00 65 1014.3
20260506231606 16 248 0.0 1.6 0.00 0.00 0.00 66 1014.5
20260506231106 16 248 0.0 0.0 0.00 0.00 0.00 66 1014.3
20260506230606 16 248 0.0 1.6 0.00 0.00 0.00 66 1014.4
20260506225607 16 248 1.6 3.2 0.00 0.00 0.00 66 1014.5
20260506225106 16 248 1.6 1.6 0.00 0.00 0.00 66 1014.5
20260506224606 16 248 1.6 3.2 0.00 0.00 0.00 67 1014.5
20260506223607 16 248 0.0 1.6 0.00 0.00 0.00 67 1014.5
20260506223106 16 248 0.0 1.6 0.00 0.00 0.00 67 1014.7
20260506222606 17 248 1.6 3.2 0.00 0.00 0.00 67 1014.6
20260506222106 17 225 1.6 3.2 0.00 0.00 0.00 68 1014.5
20260506221606 17 225 1.6 3.2 0.00 0.00 0.00 68 1014.6
20260506221106 17 225 1.6 3.2 0.00 0.00 0.00 69 1014.6
20260506220606 17 225 0.0 3.2 0.00 0.00 0.00 69 1014.7
20260506220107 17 202 1.6 3.2 0.00 0.00 0.00 69 1014.6
20260506215606 17 217 1.6 1.6 0.00 0.00 0.00 69 1014.7
20260506214606 17 217 1.6 1.6 0.00 0.00 0.00 70 1014.4
20260506214107 17 233 1.6 1.6 0.00 0.00 0.00 69 1014.6
20260506213606 17 225 1.6 1.6 0.00 0.00 0.00 69 1014.6
20260506213106 17 225 0.0 0.0 0.00 0.00 0.00 69 1014.6
20260506212606 17 225 0.0 0.0 0.00 0.00 0.00 70 1014.6
20260506212106 17 225 0.0 1.6 0.00 0.00 0.00 69 1014.6
20260506211606 17 217 0.0 0.0 0.00 0.00 0.00 69 1014.6
20260506211106 17 202 0.0 1.6 0.00 0.00 0.00 69 1014.5
20260506210606 17 135 1.6 3.2 0.00 0.00 0.00 69 1014.6
20260506205106 18 112 1.6 4.8 0.00 0.00 0.00 69 1014.5
20260506204606 17 135 1.6 3.2 0.00 0.00 0.00 69 1014.5
20260506204106 17 219 0.0 1.6 0.00 0.00 0.00 69 1014.5
20260506203607 18 231 0.0 1.6 0.00 0.00 0.00 69 1014.6
20260506203106 18 180 0.0 1.6 0.00 0.00 0.00 69 1014.6
20260506202106 18 126 1.6 4.8 0.00 0.00 0.00 68 1014.3
20260506201106 18 254 4.8 9.7 0.00 0.00 0.00 67 1014.3
20260506200606 18 270 4.8 9.7 0.00 0.00 0.00 68 1014.3
20260506200106 18 281 4.8 9.7 0.00 0.00 0.00 68 1014.1
20260506195606 18 248 4.8 9.7 0.00 0.00 0.00 68 1014.1
20260506194106 18 235 4.8 9.7 0.00 0.00 0.00 68 1014.0
20260506193606 18 250 3.2 9.7 0.00 0.00 0.00 68 1013.9
20260506193106 18 275 4.8 11.3 0.00 0.00 0.00 68 1013.9
20260506192606 18 225 3.2 9.7 0.00 0.00 0.00 69 1013.9
20260506192106 18 225 4.8 9.7 0.00 0.00 0.00 69 1013.9
20260506191607 18 186 3.2 9.7 0.00 0.00 0.00 69 1014.0
20260506191107 18 225 4.8 9.7 0.00 0.00 0.00 69 1013.8
20260506190606 18 239 1.6 9.7 0.00 0.00 0.00 69 1013.9
20260506190106 18 248 4.8 9.7 0.00 0.00 0.00 69 1013.8
20260506185606 18 189 4.8 9.7 0.00 0.00 0.00 69 1013.7
20260506185107 18 136 1.6 4.8 0.00 0.00 0.00 69 1013.6
20260506184606 18 135 1.6 8.0 0.00 0.00 0.00 69 1013.6
20260506184106 18 264 3.2 9.7 0.00 0.00 0.00 68 1013.4
20260506183607 19 254 4.8 14.5 0.00 0.00 0.00 68 1013.3
20260506183106 19 225 4.8 14.5 0.00 0.00 0.00 68 1013.3
20260506182607 18 240 3.2 8.0 0.00 0.00 0.00 69 1013.2
20260506181606 18 208 3.2 9.7 0.00 0.00 0.00 68 1013.2
20260506181106 18 205 3.2 9.7 0.00 0.00 0.00 68 1013.1
20260506180606 18 225 3.2 4.8 0.00 0.00 0.00 68 1013.2
20260506175606 19 225 4.8 9.7 0.00 0.00 0.00 68 1013.0
20260506175106 19 224 1.6 9.7 0.00 0.00 0.00 69 1012.9
20260506174607 19 255 4.8 14.5 0.00 0.00 0.00 68 1012.9
20260506174107 19 247 4.8 16.1 0.00 0.00 0.00 68 1012.9
20260506173106 19 241 8.0 19.3 0.00 0.00 0.00 68 1012.7
20260506172606 19 251 8.0 14.5 0.00 0.00 0.00 68 1012.7
20260506172106 20 283 4.8 16.1 0.00 0.00 0.00 68 1012.7
20260506171606 20 261 4.8 14.5 0.00 0.00 0.00 68 1012.7
20260506171107 20 255 4.8 20.9 0.00 0.00 0.00 68 1012.7
20260506170606 20 225 6.4 20.9 0.00 0.00 0.00 68 1012.8
20260506170107 20 213 9.7 20.9 0.00 0.00 0.00 68 1012.5
20260506165607 20 263 8.0 12.9 0.00 0.00 0.00 68 1012.7
20260506164607 20 244 9.7 20.9 0.00 0.00 0.00 68 1012.5
20260506164107 20 270 11.3 24.1 0.00 0.00 0.00 68 1012.5
20260506163607 20 248 9.7 20.9 0.00 0.00 0.00 67 1012.6
20260506163106 20 248 8.0 20.9 0.00 0.00 0.00 67 1012.4
20260506162606 20 256 9.7 19.3 0.00 0.00 0.00 67 1012.4
20260506162107 20 273 8.0 22.5 0.00 0.00 0.00 67 1012.4
20260506161606 20 245 9.7 24.1 0.00 0.00 0.00 67 1012.3
20260506160606 20 231 11.3 24.1 0.00 0.00 0.00 67 1012.1